Location: Melizzano
(41.1500°N, 14.5000°E)
Time: 23:02:32
(UTC+00:00)

Cosmos 1339 Rocket - Pass Details

Date: 11 May 2021
Orbit: 941 x 1007 km, 82.9° (Epoch: 24 June)

Event Time Altitude Azimuth Distance (km) Brightness Sun altitude
Exits shadow 23:42:56 88° 168° (SSE) 1,013 4.4 -29.8°
Maximum altitude 23:43:01 89° 103° (ESE) 1,012 4.4 -29.8°
Drops below altitude 10° 23:49:26 10° 8° (N) 2,781 7.8 -29.5°
Sets 23:51:58 0° 8° (N) 3,729 8.7 -29.4°
